EHI
0 0 0 0 0 0 0 0 0 0 0 0 0 0 0 0 0 0 0 0 0 0 0 0 1 13 33 45 47 51 47 37 38 37 24 9 2 0 0 0 0 0 0 0
0 0 0 0 0 0 0 0 0 0 0 0 0 0 0 0 0 0 0 0 0 0 0 1 6 21 41 51 48 45 48 54 63 63 48 28 13 3 0 0 0 0 0 0
0 0 0 0 0 0 0 0 0 0 0 0 0 0 0 0 0 0 0 0 0 2 5 12 25 39 51 64 64 55 60 75 85 85 75 60 40 19 7 3 1 0 0 0
0 0 0 0 0 0 0 0 0 0 0 0 0 0 0 0 0 0 0 0 0 3 10 20 33 40 44 54 66 71 74 81 87 86 83 78 65 44 25 15 8 2 0 0
0 0 0 0 0 0 0 0 0 0 0 0 0 0 0 0 0 0 0 0 0 2 7 12 16 18 17 21 36 51 56 59 64 66 68 70 67 53 38 27 15 4 0 0
0 0 0 0 0 0 0 0 0 0 0 0 0 0 0 0 0 0 0 0 0 0 1 1 1 1 0 2 8 15 18 20 25 30 36 41 41 35 27 21 12 3 0 0
0 0 0 0 0 0 0 0 0 0 0 0 0 0 0 0 0 0 0 0 0 0 0 0 0 0 0 0 0 0 0 1 3 6 9 11 12 11 8 6 3 1 0 0
0 0 0 0 0 0 0 0 0 0 0 0 0 0 0 0 0 0 0 0 0 0 0 0 0 0 0 0 0 0 0 0 0 0 0 0 0 0 0 0 0 0 0 0
0 0 0 0 0 0 0 0 0 0 0 0 0 0 0 0 0 0 0 0 0 0 0 0 0 0 0 0 0 0 0 0 0 0 0 0 0 0 0 0 0 0 0 0
0 0 0 0 0 0 0 0 0 0 0 0 0 0 0 0 0 0 0 0 0 0 0 0 0 0 0 0 0 0 0 0 0 0 0 0 0 0 0 0 0 0 0 0
0 0 0 0 0 0 0 0 0 0 0 0 0 0 0 0 0 0 0 0 0 0 0 0 0 0 0 0 0 0 0 0 0 0 0 0 0 0 0 0 0 0 0 0
0 0 0 0 0 0 0 0 0 0 0 0 0 0 0 0 0 0 0 0 0 0 0 0 0 0 0 0 0 0 0 0 0 0 0 0 0 0 0 0 0 0 0 0
0 0 0 0 0 0 0 0 0 0 0 0 0 0 0 0 0 0 0 0 0 0 0 0 0 0 0 0 0 0 0 0 0 0 0 0 0 0 0 0 0 0 0 0
0 0 0 0 0 0 0 0 0 0 0 0 0 0 0 0 0 0 0 0 0 0 0 0 0 0 0 0 0 0 0 0 0 0 0 0 0 0 0 0 0 0 0 0
0 0 0 0 0 0 0 0 0 0 0 0 0 0 0 0 0 0 0 0 0 0 0 0 0 0 0 0 0 0 0 0 0 0 0 0 0 0 0 0 0 0 0 0
0 0 0 0 0 0 0 0 0 0 0 0 0 0 0 0 0 0 0 0 0 0 0 0 0 0 0 0 0 0 0 0 0 0 0 0 0 0 0 0 0 0 0 0
0 0 0 0 0 0 0 0 0 0 0 0 0 0 0 0 0 0 0 0 0 0 0 0 0 0 0 0 0 0 0 0 0 0 0 0 0 0 0 0 0 0 0 0
0 0 0 0 0 0 0 0 0 0 0 0 0 0 0 0 0 0 0 0 0 0 0 0 0 0 0 0 0 0 0 0 0 0 0 0 0 0 0 0 0 0 0 0
0 0 0 0 0 0 0 0 0 0 0 0 0 0 0 0 0 0 0 0 0 0 0 0 0 0 0 0 0 0 0 0 0 0 0 0 0 0 0 0 0 0 0 0
0 0 0 0 0 0 0 0 0 0 0 0 0 0 0 0 0 0 0 0 0 0 0 0 0 0 0 0 0 0 0 0 0 0 0 0 0 0 0 0 0 0 0 0
0 0 0 0 0 0 0 0 0 0 0 0 0 0 0 0 0 0 0 0 0 0 0 0 0 0 0 0 0 0 0 0 0 0 0 0 0 0 0 0 0 0 0 0
0 0 0 0 0 0 0 0 0 0 0 0 0 0 0 0 0 0 0 0 0 0 0 0 0 0 0 0 0 0 0 0 0 0 0 0 0 0 0 0 0 0 0 0
0 0 0 0 0 0 0 0 0 0 0 0 0 0 0 0 0 0 0 0 0 0 0 0 0 0 0 0 0 0 0 0 0 0 0 0 0 0 0 0 0 0 0 0
0 0 0 0 0 0 0 0 0 0 0 0 0 0 0 0 0 0 0 0 0 0 0 0 0 0 0 0 0 0 0 0 0 0 0 0 0 0 0 0 0 0 0 0
0 0 0 0 0 0 0 0 0 0 0 0 0 0 0 0 0 0 0 0 0 0 0 0 0 0 0 0 0 0 0 0 0 0 0 0 0 0 0 0 0 0 0 0
0 0 0 0 0 0 0 0 0 0 0 0 0 0 0 0 0 0 0 0 0 0 0 0 0 0 0 0 0 0 0 0 0 0 0 0 0 0 0 0 0 0 0 0
0 0 0 0 0 0 0 0 0 0 0 0 0 0 0 0 0 0 0 0 0 0 0 0 0 0 0 0 0 0 0 0 0 0 0 0 0 0 0 0 0 0 0 0
Wind_Speed
10 9 13 16 17 10 13 16 15 14 16 17 18 19 20 19 17 13 13 11 8 8 7 6 8 10 10 10 10 10 10 10 8 7 7 8 8 9 9 8 8 8 7 7
14 10 12 16 14 11 6 8 9 13 16 18 21 19 20 17 15 12 10 9 7 6 5 2 6 8 9 10 10 10 10 9 8 7 7 8 9 10 10 9 10 8 8 8
12 10 14 5 12 15 13 15 12 15 18 21 19 16 11 10 10 9 7 6 5 5 7 5 5 6 7 5 4 2 8 8 8 8 9 10 11 11 11 11 10 10 11 10
9 3 3 8 13 9 3 14 19 21 20 20 20 10 9 8 8 6 4 3 6 9 9 9 8 7 6 5 6 6 5 4 6 7 8 10 11 12 12 11 11 11 12 12
4 4 5 7 15 19 16 8 21 23 23 23 24 5 14 15 9 8 8 8 9 10 10 10 10 9 8 8 8 7 4 1 2 5 7 9 10 11 11 11 11 11 10 9
5 5 4 13 24 26 17 3 22 25 25 26 24 15 16 15 10 10 10 9 8 8 10 10 10 9 9 9 9 8 7 6 5 3 2 5 8 9 8 10 9 8 7 7
7 5 2 14 25 23 5 12 24 23 21 22 18 17 15 9 6 7 7 7 6 8 9 8 8 8 9 9 9 7 7 6 6 6 5 3 2 3 3 5 5 5 5 6
5 5 6 13 16 11 11 20 23 22 22 20 19 16 11 5 4 4 6 5 5 6 8 7 6 7 8 8 6 6 5 5 6 6 4 3 2 1 3 4 5 5 5 5
6 5 5 4 6 11 13 19 23 22 21 20 18 16 12 4 1 2 3 4 5 6 6 6 5 5 6 6 5 5 5 5 4 4 3 3 2 4 5 5 4 3 4 4
7 6 9 11 7 11 14 18 22 21 19 18 17 16 11 5 3 3 4 4 4 4 3 4 4 4 4 4 3 5 5 5 4 5 4 5 3 2 4 3 3 2 1 2
9 12 16 11 16 16 18 21 22 20 19 18 16 15 11 6 4 4 5 5 5 3 1 1 2 3 3 2 2 4 4 4 4 4 4 5 4 3 3 5 5 3 3 2
8 10 9 15 15 13 16 21 21 21 20 16 15 14 12 7 4 5 6 6 5 5 4 4 2 3 1 1 1 2 2 4 3 2 4 4 3 4 7 8 8 7 7 6
8 9 11 15 13 13 17 19 20 17 16 15 14 12 11 6 4 5 6 7 7 7 6 5 4 2 2 4 2 1 2 2 1 1 2 2 3 2 2 3 5 8 9 9
9 11 12 11 15 16 17 17 18 16 12 11 11 11 9 7 4 7 7 7 7 7 7 6 5 2 3 4 4 2 2 1 0 0 2 1 1 1 1 2 2 4 7 7
10 11 12 16 17 15 15 15 15 13 12 12 10 10 10 8 6 7 8 7 7 8 8 7 5 3 4 5 5 4 2 1 0 2 1 2 2 1 2 4 3 2 4 4
13 12 11 13 16 19 19 18 16 15 14 14 13 12 11 11 9 7 9 10 9 10 9 8 6 4 5 6 5 4 2 2 1 1 2 1 1 1 4 3 3 3 4 4
12 14 15 14 16 17 17 16 16 15 15 15 14 13 13 11 8 7 9 10 10 10 7 6 5 4 6 7 6 4 3 4 3 1 1 1 1 2 5 2 1 4 5 6
9 12 14 13 13 15 16 15 15 15 14 14 13 13 12 10 7 5 8 9 10 10 9 7 6 6 7 7 6 4 4 5 4 3 2 1 1 1 4 4 2 4 4 3
10 11 13 13 12 13 14 14 15 16 15 13 12 12 12 10 8 5 5 8 10 11 9 9 9 9 9 8 5 5 5 4 4 4 3 3 2 2 3 3 4 5 3 3
10 11 12 14 13 13 12 14 16 16 15 14 13 12 12 9 6 5 5 7 8 6 6 9 12 10 10 10 7 5 5 5 4 3 4 3 3 3 5 3 3 3 4 4
10 11 12 13 13 13 12 12 13 15 15 14 12 12 12 10 7 6 5 5 6 6 7 11 10 9 10 10 9 7 6 5 4 3 4 4 4 4 5 4 3 3 4 3
10 10 12 13 13 14 14 12 12 14 15 14 13 12 11 10 8 7 6 5 2 7 8 8 9 10 12 12 8 7 7 6 5 3 3 4 4 4 4 4 4 4 4 3
10 10 11 12 12 13 13 12 12 14 15 15 14 12 11 10 8 7 6 1 4 7 7 8 12 16 16 10 8 8 8 7 5 5 4 4 5 4 4 3 4 4 3 3
11 11 11 11 12 12 12 13 13 13 14 14 12 11 10 9 8 4 4 2 3 7 7 10 17 19 14 8 8 8 8 7 5 4 3 3 3 4 5 5 5 4 3 3
10 11 11 11 10 10 11 11 12 11 13 11 11 10 8 7 7 7 5 1 5 7 7 14 21 18 11 8 8 8 7 7 6 5 4 4 4 4 4 5 4 4 3 3
10 9 8 10 9 9 9 8 9 10 10 11 11 10 9 7 7 6 4 2 5 7 7 11 13 12 9 8 8 8 8 7 7 6 5 5 5 5 5 5 4 3 4 4
10 9 8 8 8 8 8 8 9 10 11 12 13 13 11 8 6 5 3 3 6 7 9 10 11 10 9 9 9 8 8 8 7 6 6 5 5 5 5 5 3 3 4 4
Wind_Direction
297 280 285 291 291 267 235 257 278 308 313 307 308 304 293 285 285 287 284 290 296 295 292 259 219 207 201 201 191 189 189 198 200 209 207 213 203 203 209 211 213 218 221 209
294 309 312 308 332 340 261 256 303 320 316 327 316 298 284 280 280 285 283 290 308 319 328 254 197 189 186 198 198 193 198 206 196 203 205 218 214 208 211 212 224 220 234 228
301 336 321 330 40 11 47 43 5 343 338 331 326 323 316 279 279 294 305 333 347 24 45 79 123 163 183 181 122 234 231 205 197 205 208 213 219 218 215 213 215 213 218 228
280 342 287 90 40 341 21 33 10 359 354 346 336 343 24 353 318 317 355 41 83 87 83 79 75 70 68 99 139 162 239 222 210 220 220 212 218 221 216 208 202 206 212 212
300 277 226 92 14 337 314 20 15 357 354 353 341 351 44 19 17 38 63 77 79 82 82 75 69 70 72 68 72 78 70 33 244 225 221 214 215 222 220 214 206 206 213 214
306 321 312 9 344 324 295 317 2 354 353 353 350 3 5 7 30 55 64 70 76 78 76 71 63 60 62 58 53 49 42 43 43 30 302 250 234 226 220 218 217 215 210 210
345 319 356 2 345 330 355 322 333 342 345 347 349 340 332 351 28 45 56 59 64 73 74 72 69 69 65 56 46 34 28 35 43 39 26 3 308 265 218 218 207 202 195 200
349 343 336 356 354 354 315 305 314 332 335 340 341 339 340 349 21 37 57 67 74 83 83 74 68 72 73 63 47 37 29 31 37 40 25 24 62 105 148 147 138 140 155 177
328 327 351 337 320 310 318 307 314 322 323 330 336 338 331 320 42 53 64 84 92 92 90 85 67 52 66 60 35 27 33 33 33 55 57 57 96 123 121 116 123 146 171 170
323 332 346 318 334 321 313 306 312 314 317 324 332 333 323 278 205 158 124 116 122 127 125 92 69 43 42 49 22 22 35 30 28 42 25 73 84 108 109 98 123 154 174 186
317 350 338 340 335 327 319 317 314 315 316 316 325 331 328 287 224 174 159 160 165 189 203 90 45 21 16 7 342 20 43 45 44 46 58 74 87 47 37 57 27 24 36 14
312 327 320 307 317 327 318 315 315 307 300 307 318 329 328 297 231 195 180 170 182 203 225 245 282 330 4 184 268 345 39 53 39 31 78 87 92 78 43 40 49 44 43 29
295 300 295 296 312 320 309 318 317 307 297 302 314 325 326 308 222 198 190 185 197 211 228 249 268 323 102 162 202 351 48 66 76 346 54 106 152 178 139 96 69 55 48 41
304 308 308 309 319 319 317 322 318 308 303 307 314 321 322 311 233 206 202 193 198 217 231 244 259 291 163 184 201 190 105 81 285 13 309 291 256 266 345 48 81 71 53 40
326 330 318 311 317 326 329 329 321 319 326 321 319 318 317 311 275 224 201 187 197 223 234 239 249 246 192 197 211 202 183 148 126 82 327 287 257 280 62 77 87 126 120 81
329 334 338 336 334 333 337 339 330 328 328 315 310 310 315 309 289 243 203 190 200 222 231 233 240 226 192 197 205 206 162 114 265 185 176 180 223 82 88 105 137 129 107 117
331 337 340 341 335 331 335 336 327 324 317 306 302 305 306 300 284 236 213 203 209 229 235 231 227 191 185 196 201 198 175 158 197 217 108 40 8 83 111 128 111 92 87 71
325 326 329 333 331 327 330 335 330 327 316 307 302 297 294 292 291 257 222 210 211 222 227 219 200 178 182 192 195 190 188 178 182 188 161 140 60 118 125 130 135 101 90 96
318 324 328 333 332 325 326 333 331 327 324 319 309 299 292 289 290 275 229 218 217 221 217 202 172 182 178 176 186 184 176 175 188 179 169 142 145 135 109 100 109 112 127 117
317 322 324 328 331 323 325 332 328 329 335 326 312 301 287 280 281 285 250 234 235 224 192 164 165 179 168 164 193 180 156 152 191 185 161 160 141 118 96 95 110 130 129 119
315 319 319 324 327 323 325 330 325 328 334 328 314 305 297 291 285 284 269 255 236 195 171 159 169 166 160 162 187 173 152 153 161 154 153 151 139 122 117 131 128 101 84 85
310 315 313 316 323 325 324 326 329 329 332 330 325 318 309 300 294 284 266 261 209 168 171 169 167 158 152 162 176 166 156 149 146 171 164 148 141 149 148 146 133 116 107 95
304 307 307 310 315 318 318 323 328 329 328 330 333 327 316 305 295 288 291 249 197 181 187 168 145 142 150 170 169 166 159 156 159 179 169 155 143 147 143 129 109 111 124 123
299 303 305 306 305 309 319 325 325 324 320 326 333 325 317 313 302 292 291 268 193 172 183 148 145 153 164 169 167 166 161 159 165 177 153 136 130 130 120 114 116 120 112 94
290 293 299 303 305 308 313 318 315 317 316 322 332 332 323 312 300 311 319 302 145 173 169 153 156 160 169 166 169 169 163 156 154 155 154 144 135 130 123 128 134 135 126 113
288 289 296 298 297 297 304 311 310 309 316 325 332 337 328 319 303 290 284 244 166 175 165 158 161 167 170 167 169 167 158 148 149 154 154 146 140 136 137 144 159 155 127 120
283 282 287 294 295 297 301 303 302 309 320 322 327 328 319 308 300 294 276 207 179 177 168 166 166 171 164 162 168 167 164 163 163 167 168 161 155 155 163 166 156 134 122 118